EN

Hourly Weather Bzyak

Today, 16 April, Friday

Time Temperature Precipitation Wind Pressure Humidity
00:00 +5°C° 0 mm 1 mps 713 mmHg 89%
01:00 +4°C° 0 mm 0 mps 713 mmHg 90%
02:00 +3°C° 0 mm 0 mps 712 mmHg 90%
03:00 +3°C° 0 mm 0 mps 712 mmHg 90%
04:00 +3°C° 0 mm 0 mps 712 mmHg 90%
05:00 +4°C° 0 mm 0 mps 712 mmHg 86%
06:00 +5°C° 0 mm 0 mps 712 mmHg 82%
07:00 +6°C° 0 mm 0 mps 712 mmHg 78%
08:00 +9°C° 0 mm 0 mps 712 mmHg 69%
09:00 +12°C° 0 mm 1 mps 712 mmHg 60%
10:00 +14°C° 0 mm 1 mps 713 mmHg 51%
11:00 +15°C° 0 mm 1 mps 713 mmHg 46%
12:00 +16°C° 0 mm 1 mps 713 mmHg 41%
13:00 +18°C° 0 mm 1 mps 713 mmHg 36%
14:00 +18°C° 0 mm 1 mps 713 mmHg 36%
15:00 +18°C° 0 mm 1 mps 712 mmHg 36%
16:00 +18°C° 0 mm 1 mps 712 mmHg 37%
17:00 +15°C° 0 mm 1 mps 712 mmHg 49%
18:00 +13°C° 0 mm 2 mps 712 mmHg 62%
19:00 +10°C° 0 mm 2 mps 712 mmHg 74%
20:00 +9°C° 0 mm 2 mps 712 mmHg 80%
21:00 +8°C° 0 mm 2 mps 713 mmHg 85%
22:00 +7°C° 0 mm 2 mps 713 mmHg 91%
23:00 +6°C° 0 mm 2 mps 713 mmHg 91%

Tomorrow, 17 April, Saturday

Time Temperature Precipitation Wind Pressure Humidity
00:00 +6°C° 0 mm 2 mps 713 mmHg 91%
01:00 +6°C° 0 mm 2 mps 713 mmHg 92%
02:00 +7°C° 0 mm 1 mps 713 mmHg 90%
03:00 +7°C° 0 mm 1 mps 713 mmHg 89%
04:00 +7°C° 0 mm 1 mps 713 mmHg 88%
05:00 +7°C° 0 mm 1 mps 713 mmHg 86%
06:00 +8°C° 0 mm 1 mps 713 mmHg 84%
07:00 +8°C° 0 mm 1 mps 713 mmHg 82%
08:00 +9°C° 0 mm 1 mps 713 mmHg 76%
09:00 +10°C° 0 mm 1 mps 714 mmHg 71%
10:00 +12°C° 0 mm 1 mps 714 mmHg 66%
11:00 +13°C° 0 mm 1 mps 713 mmHg 62%
12:00 +14°C° 0 mm 1 mps 713 mmHg 58%
13:00 +15°C° 0 mm 1 mps 713 mmHg 54%
14:00 +14°C° 0.1 mm 1 mps 713 mmHg 56%
15:00 +14°C° 0.1 mm 1 mps 713 mmHg 57%
16:00 +14°C° 0.1 mm 2 mps 712 mmHg 59%
17:00 +12°C° 0.1 mm 2 mps 712 mmHg 66%
18:00 +11°C° 0.1 mm 1 mps 712 mmHg 74%
19:00 +10°C° 0.1 mm 1 mps 712 mmHg 81%
20:00 +9°C° 0 mm 1 mps 712 mmHg 86%
21:00 +8°C° 0 mm 1 mps 712 mmHg 90%
22:00 +7°C° 0 mm 1 mps 712 mmHg 94%
23:00 +7°C° 0 mm 1 mps 712 mmHg 95%

Day after tomorrow, 18 April, Sunday

Time Temperature Precipitation Wind Pressure Humidity
00:00 +6°C° 0 mm 1 mps 712 mmHg 95%
01:00 +5°C° 0 mm 1 mps 711 mmHg 96%
02:00 +5°C° 0 mm 1 mps 711 mmHg 95%
03:00 +4°C° 0 mm 1 mps 711 mmHg 93%
04:00 +3°C° 0 mm 1 mps 711 mmHg 92%
05:00 +4°C° 0 mm 1 mps 711 mmHg 85%
06:00 +4°C° 0 mm 1 mps 711 mmHg 77%
07:00 +5°C° 0 mm 1 mps 711 mmHg 70%
08:00 +5°C° 0 mm 2 mps 711 mmHg 62%
09:00 +6°C° 0 mm 2 mps 711 mmHg 53%
10:00 +8°C° 0 mm 3 mps 711 mmHg 45%
11:00 +8°C° 0 mm 3 mps 711 mmHg 42%
12:00 +9°C° 0 mm 3 mps 711 mmHg 40%
13:00 +10°C° 0 mm 3 mps 711 mmHg 38%
14:00 +10°C° 0 mm 3 mps 711 mmHg 39%
15:00 +10°C° 0 mm 3 mps 711 mmHg 40%
16:00 +10°C° 0 mm 3 mps 711 mmHg 42%
17:00 +8°C° 0 mm 3 mps 712 mmHg 50%
18:00 +7°C° 0 mm 3 mps 712 mmHg 59%
19:00 +5°C° 0 mm 3 mps 712 mmHg 67%
20:00 +3°C° 0 mm 4 mps 713 mmHg 69%
21:00 0°C° 0 mm 5 mps 713 mmHg 71%
22:00 -1°C° 0 mm 5 mps 714 mmHg 73%
23:00 -3°C° 0 mm 6 mps 714 mmHg 69%

19 April, Monday

Time Temperature Precipitation Wind Pressure Humidity
00:00 -4°C° 0 mm 6 mps 714 mmHg 65%
01:00 -5°C° 0 mm 6 mps 715 mmHg 61%
02:00 -5°C° 0 mm 6 mps 715 mmHg 61%
03:00 -5°C° 0 mm 5 mps 716 mmHg 61%
04:00 -5°C° 0 mm 5 mps 716 mmHg 61%
05:00 -5°C° 0 mm 5 mps 716 mmHg 59%
06:00 -6°C° 0 mm 5 mps 717 mmHg 57%
07:00 -6°C° 0 mm 6 mps 717 mmHg 55%
08:00 -5°C° 0 mm 6 mps 717 mmHg 49%
09:00 -4°C° 0 mm 6 mps 717 mmHg 44%
10:00 -3°C° 0 mm 6 mps 718 mmHg 39%
11:00 -1°C° 0 mm 5 mps 718 mmHg 35%
12:00 -1°C° 0 mm 5 mps 718 mmHg 32%
13:00 0°C° 0 mm 5 mps 718 mmHg 29%
14:00 0°C° 0 mm 5 mps 718 mmHg 29%
15:00 0°C° 0 mm 5 mps 718 mmHg 29%
16:00 0°C° 0 mm 5 mps 718 mmHg 29%
17:00 -1°C° 0 mm 4 mps 718 mmHg 34%
18:00 -2°C° 0 mm 4 mps 718 mmHg 38%
19:00 -3°C° 0 mm 4 mps 719 mmHg 42%
20:00 -4°C° 0 mm 4 mps 719 mmHg 44%
21:00 -5°C° 0 mm 4 mps 719 mmHg 46%
22:00 -5°C° 0 mm 4 mps 719 mmHg 48%
23:00 -7°C° 0 mm 4 mps 720 mmHg 48%

20 April, Tuesday

Time Temperature Precipitation Wind Pressure Humidity
00:00 -7°C° 0 mm 4 mps 720 mmHg 48%
01:00 -7°C° 0 mm 4 mps 720 mmHg 48%
02:00 -7°C° 0 mm 4 mps 720 mmHg 48%
03:00 -7°C° 0 mm 3 mps 720 mmHg 49%
04:00 -7°C° 0 mm 3 mps 721 mmHg 49%
05:00 -6°C° 0 mm 3 mps 721 mmHg 46%
06:00 -6°C° 0 mm 3 mps 721 mmHg 44%
07:00 -5°C° 0 mm 3 mps 721 mmHg 41%
08:00 -4°C° 0 mm 3 mps 722 mmHg 37%
09:00 -2°C° 0 mm 3 mps 722 mmHg 32%
10:00 0°C° 0 mm 3 mps 722 mmHg 28%
11:00 +1°C° 0 mm 3 mps 722 mmHg 26%
12:00 +2°C° 0 mm 3 mps 721 mmHg 25%
13:00 +3°C° 0 mm 3 mps 721 mmHg 24%
14:00 +5°C° 0 mm 2 mps 721 mmHg 24%
15:00 +5°C° 0 mm 2 mps 721 mmHg 25%
16:00 +5°C° 0 mm 2 mps 721 mmHg 26%
17:00 +5°C° 0 mm 1 mps 721 mmHg 33%
18:00 +3°C° 0 mm 1 mps 721 mmHg 40%
19:00 +2°C° 0 mm 1 mps 721 mmHg 46%
20:00 +1°C° 0 mm 1 mps 721 mmHg 49%
21:00 0°C° 0 mm 1 mps 721 mmHg 51%
22:00 -1°C° 0 mm 1 mps 721 mmHg 53%
23:00 -1°C° 0 mm 1 mps 721 mmHg 53%

21 April, Wednesday

Time Temperature Precipitation Wind Pressure Humidity
00:00 -1°C° 0 mm 1 mps 721 mmHg 53%
01:00 -1°C° 0 mm 1 mps 721 mmHg 53%
02:00 -2°C° 0 mm 0 mps 722 mmHg 53%
03:00 -2°C° 0 mm 0 mps 722 mmHg 53%
04:00 -2°C° 0 mm 0 mps 723 mmHg 52%
05:00 -1°C° 0 mm 0 mps 723 mmHg 48%
06:00 0°C° 0 mm 0 mps 723 mmHg 44%
07:00 +1°C° 0 mm 0 mps 723 mmHg 40%
08:00 +4°C° 0 mm 1 mps 723 mmHg 37%
09:00 +5°C° 0 mm 1 mps 723 mmHg 34%
10:00 +7°C° 0 mm 1 mps 723 mmHg 31%
11:00 +7°C° 0 mm 2 mps 723 mmHg 30%
12:00 +8°C° 0 mm 2 mps 723 mmHg 30%
13:00 +9°C° 0 mm 2 mps 723 mmHg 30%
14:00 +9°C° 0 mm 2 mps 723 mmHg 31%
15:00 +9°C° 0 mm 2 mps 723 mmHg 31%
16:00 +10°C° 0 mm 3 mps 723 mmHg 32%
17:00 +8°C° 0 mm 2 mps 723 mmHg 39%
18:00 +6°C° 0 mm 2 mps 723 mmHg 47%
19:00 +5°C° 0 mm 2 mps 723 mmHg 54%
20:00 +5°C° 0 mm 1 mps 723 mmHg 58%
21:00 +4°C° 0 mm 1 mps 723 mmHg 62%
22:00 +3°C° 0 mm 1 mps 724 mmHg 66%
23:00 +2°C° 0 mm 1 mps 724 mmHg 67%
Show more

We Need Your Consent

Meteoprog and our Service Providers may store and access personal data such as cookies, device identifiers or other similar technologies on your device and process such data to personalise content and ads, as well as provide social media features and to analyse the traffic.

  • Store and/or access information on your device

    Cookies, device identifiers or other information can be stored or accessed on your device for the purposes indicated above.

  • Personalised ads and content, ad and content measurement, audience insights, and products development

    Ads and content can be personalised based on a profile. More data can be added to better personalise ads and content. Ad and content performance can be measured. Insights about the audience who saw the ads and content can be derived. Such data can be used to develop or improve user’s experience, systems and software.

By clicking ‘I Agree’ you will allow the use of indicated cookies, device identifiers, web beacons or other similar technologies. Your settings can be changed in the browser on your device.

For certain purposes, legitimate interests may be relied on, rather than consent. You can read more about this in our Privacy and Cookie Policy.